TimeCST,TemperatureF,Dew PointF,Humidity,Sea Level PressureIn,VisibilityMPH,Wind Direction,Wind SpeedMPH,Gust SpeedMPH,PrecipitationIn,Events,Conditions,WindDirDegrees,DateUTC
12:48 AM,71.6,53.6,53,30.12,7.0,NE,5.8,-,N/A,,Partly Cloudy,50,2012-11-29 06:48:00
1:47 AM,69.8,57.2,64,30.10,7.0,NE,4.6,-,N/A,,Partly Cloudy,50,2012-11-29 07:47:00
2:44 AM,69.8,53.6,56,30.12,7.0,NE,3.5,-,N/A,,Partly Cloudy,40,2012-11-29 08:44:00
3:44 AM,69.8,59.0,68,30.08,7.0,ENE,4.6,-,N/A,,Partly Cloudy,60,2012-11-29 09:44:00
4:46 AM,69.8,55.4,60,30.08,7.0,ENE,4.6,-,N/A,,Scattered Clouds,60,2012-11-29 10:46:00
5:40 AM,69.8,53.6,56,30.05,7.0,Calm,Calm,-,N/A,,Partly Cloudy,0,2012-11-29 11:40:00
6:45 AM,64.4,57.2,77,30.10,8.0,Calm,Calm,-,N/A,,Mostly Cloudy,0,2012-11-29 12:45:00
7:40 AM,71.6,66.2,83,30.12,8.0,Calm,Calm,-,N/A,,Mostly Cloudy,0,2012-11-29 13:40:00
8:42 AM,77.0,64.4,65,30.16,8.0,ENE,8.1,-,N/A,,Scattered Clouds,70,2012-11-29 14:42:00
9:46 AM,75.2,66.2,73,30.14,8.0,ENE,10.4,-,N/A,,Mostly Cloudy,60,2012-11-29 15:46:00
10:42 AM,77.0,64.4,65,30.13,8.0,ENE,13.8,-,N/A,,Mostly Cloudy,60,2012-11-29 16:42:00
11:41 AM,78.8,57.2,47,30.09,8.0,NE,13.8,-,N/A,,Mostly Cloudy,50,2012-11-29 17:41:00
12:41 PM,78.8,53.6,42,30.09,8.0,ENE,13.8,-,N/A,,Mostly Cloudy,70,2012-11-29 18:41:00
1:45 PM,78.8,53.6,42,30.07,8.0,NE,13.8,-,N/A,,Mostly Cloudy,50,2012-11-29 19:45:00
2:46 PM,77.0,53.6,44,30.09,8.0,ENE,16.1,-,N/A,,Mostly Cloudy,70,2012-11-29 20:46:00
3:44 PM,77.0,57.2,50,30.06,8.0,NE,8.1,-,N/A,,Scattered Clouds,40,2012-11-29 21:44:00
4:43 PM,73.4,53.6,50,30.06,8.0,ENE,5.8,-,N/A,,Mostly Cloudy,60,2012-11-29 22:43:00
5:40 PM,71.6,53.6,53,30.04,8.0,NE,3.5,-,N/A,,Partly Cloudy,50,2012-11-29 23:40:00
6:47 PM,69.8,53.6,56,30.08,7.0,Calm,Calm,-,N/A,,Partly Cloudy,0,2012-11-30 00:47:00
7:45 PM,68.0,50.0,52,30.10,7.0,Calm,Calm,-,N/A,,Partly Cloudy,0,2012-11-30 01:45:00
8:43 PM,68.0,51.8,56,30.14,7.0,ENE,4.6,-,N/A,,Partly Cloudy,70,2012-11-30 02:43:00
9:44 PM,66.2,57.2,73,30.12,7.0,East,3.5,-,N/A,,Partly Cloudy,80,2012-11-30 03:44:00
10:47 PM,66.2,64.4,94,30.11,7.0,Calm,Calm,-,N/A,,Partly Cloudy,0,2012-11-30 04:47:00
11:50 PM,62.6,60.8,94,30.06,7.0,Calm,Calm,-,N/A,,Scattered Clouds,0,2012-11-30 05:50:00